SCP
0 0 0 0 0 0 0 0 0 0 0 0 0 0 0 0 0 0 0 0 0 0 0 0 0 0 0 0 0 0 0 0 0 0 0 0 0 0 0 0 0 0 0
0 0 0 0 0 0 0 0 0 0 0 0 0 0 0 0 0 0 0 0 0 0 0 0 0 0 0 0 0 0 0 0 0 0 0 0 0 0 0 0 0 0 0
1 0 0 0 0 0 0 0 0 0 0 0 0 0 0 0 0 0 0 0 0 0 0 0 0 0 0 0 0 0 0 0 0 0 0 0 0 0 0 0 0 0 0
1 0 0 0 0 0 0 0 0 0 0 0 0 0 0 0 0 0 0 0 0 0 0 0 1 1 0 0 0 0 0 0 0 0 0 0 0 0 0 0 0 0 0
1 1 0 0 0 0 0 0 0 0 0 0 0 0 0 0 0 0 0 0 0 0 0 1 1 1 1 0 0 0 0 0 0 0 0 0 0 0 0 0 0 0 0
1 1 1 0 0 0 1 1 1 0 0 0 0 0 0 0 0 0 0 0 0 0 1 1 1 1 1 1 0 0 0 0 0 0 0 0 0 0 0 0 0 0 0
1 1 1 0 0 0 1 1 1 1 1 1 1 0 0 0 0 0 0 0 0 1 1 1 1 0 0 0 0 0 0 0 0 0 0 0 0 0 0 0 0 1 1
1 1 1 0 0 0 0 1 1 1 1 1 1 1 0 0 0 0 0 1 1 1 1 1 1 0 0 0 0 0 0 0 0 0 0 0 0 0 0 0 0 1 1
1 1 1 0 0 0 0 0 0 0 0 0 1 1 0 0 0 0 0 1 1 1 1 1 0 0 0 0 0 0 0 0 0 0 0 0 0 0 0 0 1 1 1
1 1 1 0 0 0 0 0 0 0 0 0 0 0 0 0 0 0 0 1 1 1 1 0 0 0 0 0 0 0 0 0 0 0 0 0 0 0 1 1 1 1 1
1 1 1 0 0 0 0 0 0 0 0 0 0 0 0 0 0 0 0 0 1 1 1 0 0 0 0 0 0 0 0 0 0 0 0 0 0 1 1 1 1 1 1
1 1 1 0 0 0 0 0 0 0 0 0 0 0 0 0 0 0 0 0 0 0 0 0 0 0 0 0 0 0 0 0 0 0 0 0 0 1 1 1 1 1 1
1 1 1 0 0 0 0 0 0 0 0 0 0 0 0 0 0 0 0 0 0 0 0 0 0 0 0 0 0 0 0 0 0 0 0 0 0 1 1 1 0 1 1
1 1 1 0 0 0 0 0 0 0 0 0 0 0 0 0 0 0 0 0 0 0 0 0 0 0 0 0 0 0 0 0 0 0 0 0 0 1 1 1 1 1 1
1 1 1 1 0 0 0 0 0 0 0 0 0 0 0 0 0 0 0 0 0 0 0 0 0 0 0 0 0 0 0 0 0 0 0 0 0 0 1 1 1 1 1
1 1 1 1 0 0 0 0 0 0 0 0 0 0 0 0 0 0 0 0 0 0 0 0 0 0 0 0 0 0 0 0 0 0 0 0 0 0 0 1 1 1 1
1 1 1 1 0 0 0 0 0 0 0 0 0 0 0 0 0 0 0 0 0 0 0 0 0 0 0 0 0 0 0 0 0 0 0 0 0 0 0 0 0 1 1
1 1 1 1 0 0 0 0 0 0 0 0 0 0 0 0 0 0 0 0 0 0 0 0 0 0 0 0 0 0 0 0 0 0 0 0 0 0 0 0 0 1 1
1 1 1 1 0 0 0 0 0 0 0 0 0 0 0 0 0 0 0 0 0 0 0 0 0 0 0 0 0 0 0 0 0 0 0 0 0 0 0 0 0 0 0
1 1 1 1 0 0 0 0 0 0 0 0 0 0 0 0 0 0 0 0 0 0 0 0 0 0 0 0 0 0 0 0 0 0 0 0 0 0 0 0 0 0 0
1 1 1 0 0 0 0 0 0 0 0 0 0 0 0 0 0 0 0 0 0 0 0 0 0 0 0 0 0 0 0 0 0 0 0 0 0 0 0 0 0 0 0
1 1 0 0 0 0 0 0 0 0 0 0 0 0 0 0 0 0 0 0 0 0 0 0 0 0 0 0 0 0 0 0 0 0 0 0 0 0 0 0 0 0 0
1 1 0 0 0 0 0 0 0 0 0 0 0 0 0 0 0 0 0 0 0 0 0 0 0 0 0 0 0 0 0 0 0 0 0 0 0 0 0 0 0 0 0
1 1 0 0 0 0 0 0 0 0 0 0 0 0 0 0 0 0 0 0 0 0 0 0 0 0 0 0 0 0 0 0 0 0 0 0 0 0 0 0 0 0 0
1 1 0 0 0 0 0 0 0 0 0 0 0 0 0 0 0 0 0 0 0 0 0 0 0 0 0 0 0 0 0 0 0 0 0 0 0 0 0 0 0 0 0
1 0 0 0 0 0 0 0 0 0 0 0 0 0 0 0 0 0 0 0 0 0 0 0 0 0 0 0 0 0 0 0 0 0 0 0 0 0 0 0 0 0 0
Wind_Speed
4 4 4 4 6 7 8 8 8 9 9 9 10 10 10 10 10 10 10 9 9 9 10 10 10 10 10 10 10 10 10 10 9 8 8 9 10 10 10 9 8 6 10
4 5 5 5 6 7 8 8 8 9 9 9 9 10 10 10 9 9 9 10 9 9 9 10 10 10 10 10 9 9 8 8 7 6 6 7 8 9 10 10 9 6 10
6 6 5 6 7 8 8 9 9 9 9 9 9 9 9 10 10 10 10 10 10 10 10 10 10 10 10 10 9 9 8 7 6 6 5 3 6 9 10 10 9 9 9
7 6 5 7 8 9 9 9 9 9 9 10 10 10 9 9 9 10 10 9 9 9 9 9 10 10 10 10 9 9 8 7 7 6 3 4 5 8 9 10 9 10 10
6 6 6 8 9 10 10 9 9 9 9 10 10 10 10 9 9 10 9 9 9 9 9 9 9 9 9 9 9 8 8 8 7 5 4 5 5 8 9 9 9 9 9
7 7 7 8 10 10 10 10 9 9 9 10 10 10 10 10 11 10 10 10 10 9 9 9 9 9 9 8 8 8 7 7 6 4 5 5 5 8 9 9 9 9 9
7 7 7 9 10 10 10 10 10 10 10 10 9 10 10 10 10 10 10 10 10 10 10 9 9 9 8 8 7 7 7 7 4 4 5 5 6 8 8 8 8 8 8
7 7 7 9 9 9 10 10 10 11 11 10 10 10 10 10 10 10 10 10 10 10 10 10 10 9 8 8 8 8 8 7 5 5 5 5 7 8 8 8 8 7 7
6 6 5 5 7 8 9 9 10 11 11 10 10 9 10 10 11 11 11 10 10 9 10 10 10 9 9 8 8 8 8 8 5 4 6 4 7 9 9 8 8 8 7
5 5 5 5 4 4 5 8 9 9 9 9 9 8 7 8 9 10 9 10 9 9 9 9 9 8 8 8 8 7 7 6 5 5 4 5 9 9 9 9 7 7 7
5 4 4 4 4 3 3 5 5 6 7 6 6 6 5 3 3 5 7 9 9 9 8 8 8 7 6 5 6 7 5 3 4 4 4 7 9 9 9 9 9 8 7
4 4 3 4 3 3 3 3 2 3 3 3 3 2 2 3 3 4 5 6 7 7 6 6 6 5 4 2 4 5 3 3 3 4 5 9 9 8 8 8 7 8 8
3 3 3 3 3 3 2 2 2 1 1 2 3 3 2 3 2 2 1 2 2 3 3 3 3 3 3 3 3 3 3 3 3 3 5 10 9 8 8 8 7 7 7
3 3 3 3 3 3 2 2 2 1 1 2 2 3 3 2 2 2 1 1 1 1 2 2 1 3 3 3 3 4 4 3 3 3 5 10 10 9 8 8 8 7 7
3 3 3 3 3 2 2 1 2 1 1 2 2 2 3 2 2 2 2 1 2 1 1 2 2 3 3 3 3 4 4 4 4 4 3 9 10 10 10 10 9 9 8
3 2 2 3 2 2 2 1 1 1 1 1 1 2 3 2 2 2 2 2 2 2 2 1 2 2 2 2 3 3 4 3 4 4 3 5 9 10 10 10 10 10 9
4 3 2 3 3 2 2 2 1 1 1 1 1 2 2 2 2 2 1 2 2 2 2 2 2 2 2 2 2 3 2 3 3 4 3 3 4 7 9 9 10 10 9
4 4 3 2 2 2 2 2 1 1 1 1 1 1 1 2 2 2 1 1 1 2 2 1 1 1 2 2 2 2 2 2 3 3 3 3 3 3 5 8 9 9 9
4 4 4 3 3 2 2 1 1 1 1 1 1 1 1 2 2 1 1 1 1 1 2 2 1 1 1 2 1 1 1 1 2 3 3 3 3 3 3 6 8 8 9
4 4 5 4 3 3 2 1 1 1 1 1 1 1 1 1 2 1 1 1 1 1 2 2 2 2 1 1 1 1 1 1 2 2 2 2 3 3 3 4 4 5 9
4 4 5 5 4 3 2 2 1 1 1 1 1 2 1 2 1 1 1 1 1 1 1 1 1 2 2 2 1 1 1 1 2 2 2 2 3 3 3 4 3 3 4
5 4 4 4 4 4 3 2 1 1 1 1 1 1 1 1 1 1 1 1 1 1 1 1 1 1 1 2 1 0 1 1 2 2 2 2 3 2 3 4 4 4 3
5 5 4 4 4 4 4 2 2 1 1 1 1 1 1 1 1 1 1 1 1 1 1 1 1 1 0 1 1 1 0 1 1 1 2 2 2 2 2 2 3 3 3
5 4 4 5 4 4 5 4 3 2 2 2 1 1 1 1 1 1 1 1 1 1 1 1 1 1 1 0 1 1 1 1 1 1 2 1 2 2 2 2 2 2 3
4 4 4 5 4 4 5 4 3 2 2 2 2 2 1 1 1 1 1 1 1 1 1 1 1 1 1 0 0 0 1 1 0 1 2 2 2 1 2 2 1 2 2
4 4 4 4 4 4 5 5 4 4 3 3 2 2 1 1 1 1 1 1 1 0 1 1 1 1 1 1 0 0 0 0 1 1 1 2 2 2 2 1 1 1 1
Wind_Direction
74 74 49 61 81 79 78 77 74 73 72 71 71 72 71 70 67 63 61 59 58 59 60 61 63 64 65 64 64 60 57 54 54 57 59 60 61 59 56 51 52 53 62
86 84 62 65 81 80 81 79 76 73 71 72 71 71 70 68 65 62 60 58 58 59 61 60 61 61 63 63 62 60 60 55 46 43 54 59 62 61 59 55 53 55 58
85 87 80 60 73 76 82 82 78 75 76 75 72 71 69 67 65 64 60 57 56 56 59 61 63 61 62 62 60 58 55 47 34 29 40 59 71 66 63 57 53 54 54
86 87 84 64 68 72 79 82 79 78 76 75 71 69 67 66 64 61 58 55 55 56 57 58 60 59 58 58 58 56 51 39 26 16 35 56 62 64 64 57 55 54 52
83 82 77 67 71 73 74 79 80 78 75 73 71 67 65 63 61 59 57 55 54 55 55 57 58 56 55 53 51 48 39 29 20 17 39 51 56 62 62 56 54 52 50
84 82 82 72 73 73 72 71 73 75 74 71 68 65 63 61 58 55 54 56 55 54 55 56 56 54 52 51 49 42 32 23 21 40 50 47 49 61 62 59 56 53 52
79 81 88 76 75 73 73 71 69 68 69 70 67 67 64 60 56 54 53 53 55 56 56 55 52 49 48 47 45 37 27 20 33 45 50 46 48 56 62 59 57 56 54
82 84 90 75 73 72 71 70 67 66 64 65 68 67 65 61 57 53 51 52 55 56 58 56 54 50 45 44 42 33 24 24 41 44 49 45 46 52 56 55 52 55 54
83 85 88 92 83 73 68 67 66 65 63 61 63 65 63 60 56 51 48 50 53 53 55 56 55 52 49 45 38 29 25 25 38 40 41 39 45 53 51 51 51 51 51
81 81 84 83 85 87 81 68 65 65 63 60 57 53 58 62 60 55 48 45 48 50 52 52 52 52 48 46 37 27 21 27 41 42 32 38 51 54 50 47 46 45 43
83 77 79 79 75 78 88 79 71 67 60 60 56 47 47 62 68 62 52 45 44 45 47 48 46 45 39 37 35 27 22 38 45 42 31 37 50 52 49 46 42 39 36
94 86 81 83 75 76 81 81 70 66 63 51 47 37 27 37 52 63 58 50 44 41 40 39 35 32 28 26 28 29 29 36 47 43 35 38 41 46 43 39 36 35 36
119 102 85 88 88 82 82 84 67 64 57 45 39 21 34 39 44 61 64 51 41 41 32 27 27 27 27 27 26 30 29 33 48 42 33 36 36 38 36 32 34 35 33
123 116 99 91 89 84 85 87 84 73 63 54 37 30 34 29 23 32 43 34 29 33 33 20 20 28 30 30 32 35 35 39 46 46 38 39 38 37 33 30 31 30 33
133 130 126 113 107 100 95 87 80 69 62 61 43 32 38 37 26 17 23 30 19 20 21 20 27 31 32 32 36 39 40 46 45 50 41 39 37 34 31 32 30 29 27
154 143 138 129 116 105 96 96 94 88 76 71 54 38 34 39 31 23 19 14 17 14 11 29 29 35 36 43 43 38 38 44 50 52 56 42 39 32 29 30 26 24 24
164 156 146 140 130 122 112 103 101 102 96 92 77 57 37 34 32 36 24 15 7 7 17 34 28 46 46 47 46 41 45 52 55 48 48 48 40 35 29 27 20 17 16
166 166 159 147 148 137 130 128 129 123 97 87 80 84 52 41 39 39 17 6 7 19 15 31 39 43 42 38 34 38 49 55 60 58 51 46 44 36 27 28 20 14 12
171 171 167 160 162 155 148 137 132 119 101 93 76 69 49 47 39 41 358 4 32 35 28 20 34 46 50 34 30 38 45 68 75 67 59 53 51 43 28 22 21 18 13
170 173 174 165 170 160 148 133 121 112 111 107 89 65 50 42 33 32 5 10 40 56 38 34 34 31 45 29 25 39 62 91 89 76 62 55 53 44 32 24 17 21 23
170 174 183 171 171 160 154 154 155 160 151 113 94 67 54 40 29 44 8 12 33 65 59 47 57 54 37 17 38 31 27 82 83 77 68 59 49 43 39 30 26 27 19
177 182 180 179 176 170 166 170 163 160 168 142 117 100 71 62 33 30 29 27 34 58 69 53 67 52 31 16 28 22 11 9 17 57 70 68 55 41 38 30 28 29 22
186 186 187 185 183 175 163 151 141 138 131 125 149 149 121 78 62 71 47 42 40 67 84 67 81 75 63 348 29 50 116 246 322 342 31 57 51 41 27 19 22 18 16
189 180 186 185 183 174 160 166 172 175 177 183 169 158 144 130 106 77 66 59 55 68 72 49 59 75 126 4 356 13 30 145 139 310 323 15 29 24 9 358 3 5 16
176 174 184 185 180 175 168 172 175 176 181 155 144 152 163 161 134 114 100 86 73 81 86 65 49 49 70 105 73 344 348 349 43 188 278 313 334 335 334 334 344 353 12
168 167 178 184 182 180 174 173 175 178 175 163 162 172 174 158 146 132 110 103 97 102 104 99 88 67 57 42 21 66 134 172 233 203 254 293 303 297 299 307 322 331 355